This is the latest recevied weather packets stored in our database for station/object KC9GSD. If no packets are shown the sender has not sent any weather packets the latest 10 day(s).
| Time | Temp. | Humidity | Pressure | Rain* | Wind** | Luminosity | Snow |
|---|---|---|---|---|---|---|---|
| 1777827333 | 16.67° C | 50% | 1021.5 hPa | 0 mm | - | 808 W/m² | - |
| 1777827029 | 16.67° C | 46% | 1021.2 hPa | 0 mm | - | 800 W/m² | - |
| 1777826726 | 16.67° C | 54% | 1021.4 hPa | 0 mm | - | 792 W/m² | - |
| 1777826423 | 16.67° C | 51% | 1021.5 hPa | 0 mm | - | 790 W/m² | - |
| 1777826120 | 16.67° C | 49% | 1021.5 hPa | 0 mm | - | 783 W/m² | - |
| 1777825817 | 16.67° C | 50% | 1021.4 hPa | 0 mm | - | 778 W/m² | - |
| 1777825514 | 16.11° C | 56% | 1021.5 hPa | 0 mm | - | 770 W/m² | - |
| 1777825212 | 15.56° C | 48% | 1021.5 hPa | 0 mm | - | 759 W/m² | - |
| 1777824909 | 16.11° C | 58% | 1021.6 hPa | 0 mm | - | 751 W/m² | - |
| 1777824604 | 16.11° C | 51% | 1021.5 hPa | 0 mm | - | 743 W/m² | - |
| 1777824301 | 16.67° C | 49% | 1021.6 hPa | 0 mm | - | 738 W/m² | - |
| 1777823996 | 16.11° C | 52% | 1021.6 hPa | 0 mm | - | 727 W/m² | - |
| 1777823694 | 16.11° C | 49% | 1021.6 hPa | 0 mm | - | 722 W/m² | - |
| 1777823390 | 15° C | 54% | 1021.6 hPa | 0 mm | - | 718 W/m² | - |
| 1777823089 | 15° C | 53% | 1021.7 hPa | 0 mm | - | 700 W/m² | - |
| 1777822786 | 15.56° C | 56% | 1021.8 hPa | 0 mm | - | 692 W/m² | - |
| 1777822484 | 15° C | 53% | 1021.7 hPa | 0 mm | - | 680 W/m² | - |
| 1777822181 | 15° C | 53% | 1021.8 hPa | 0 mm | - | 573 W/m² | - |
| 1777821878 | 15° C | 63% | 1021.6 hPa | 0 mm | - | 671 W/m² | - |
| 1777821576 | 15° C | 55% | 1021.6 hPa | 0 mm | - | 653 W/m² | - |
| 1777821274 | 15° C | 60% | 1021.8 hPa | 0 mm | - | 636 W/m² | - |
| 1777820970 | 15° C | 52% | 1021.5 hPa | 0 mm | - | 615 W/m² | - |
| 1777820667 | 14.44° C | 59% | 1021.4 hPa | 0 mm | - | 604 W/m² | - |
| 1777820363 | 15° C | 54% | 1021.7 hPa | 0 mm | - | 591 W/m² | - |
| 1777820061 | 14.44° C | 60% | 1021.7 hPa | 0 mm | - | 579 W/m² | - |
* Rain latest hour (hover to see other rain measurements)
** Current wind speed in m/s (hover to see current wind gust speed)